Regional Weather Roundup
Issued by NWS Lake Charles, LA

Home | Current Version | Previous Version | Text Only | Print | Product List | Glossary On
Versions: 1 2 3 4 5 6 7 8 9 10 11 12 13 14 15 16 17 18 19 20 21 22 23 24 25 26 27 28 29 30 31 32 33 34 35 36 37 38 39 40 41 42 43 44 45 46 47 48 49 50
115
ASUS44 KLCH 250310
RWRLCH
REGIONAL WEATHER ROUNDUP
NATIONAL WEATHER SERVICE LAKE CHARLES LA
1000 PM CDT MON JUL 24 2017

Note: "fair" indicates few or no clouds below 12,000 feet with no
significant weather and/or obstructions to visibility.


ACROSS SOUTHEAST TEXAS

CITY           SKY/WX    TMP DP  RH WIND       PRES   REMARKS
BEAUMONT       PTCLDY    81  74  79 S7        30.01R
BEAUMONT CITY  FAIR      82  74  77 MISG      30.02R
ORANGE         PTCLDY    83  76  80 SW6       30.03R
JASPER           N/A     79  76  91 CALM      30.03R
$$

ACROSS CENTRAL LOUISIANA

CITY           SKY/WX    TMP DP  RH WIND       PRES   REMARKS
LEESVILLE      CLOUDY    77  76  94 CALM      30.01R
FULLERTON      FAIR      78  76  93 CALM      29.99R
ALEXANDRIA INT CLOUDY    77  76  96 S5        30.00R
ESLER FIELD    CLOUDY    77  76  96 CALM      30.01R
DERIDDER       FAIR      78  77  95 SE5       30.04R
OAKDALE        CLOUDY    78  76  94 CALM      30.02R
OPELOUSAS      CLOUDY    79  78  97 CALM      30.02S
$$

ACROSS SOUTHWEST AND SOUTH CENTRAL LOUISIANA

CITY           SKY/WX    TMP DP  RH WIND       PRES   REMARKS
SULPHUR        CLOUDY    83  76  77 S6        30.02S
LAKE CHARLES   CLOUDY    84  77  79 SW6       30.01S
CHENNAULT INT  CLEAR     79  75  89 S6        30.01S
CAMERON PHI    CLEAR     84  75  74 S13       30.01S
DEQUINCY       FAIR      81  75  82 S3        30.02R
JENNINGS       FAIR      81  76  84 CALM      30.02S
LAFAYETTE      CLOUDY    83  77  82 S6        30.03R
NEW IBERIA     MOCLDY    80  75  84 SW6       30.04R
ABBEVILLE      FAIR      79  79 100 S5        30.03S
PATTERSON      MOCLDY    79  77  94 SW3       30.05R
SALT POINT       N/A     85  76  74 VRB7      30.03R
$$

SELECTED SITES ACROSS THE REGION

CITY           SKY/WX    TMP DP  RH WIND       PRES   REMARKS
HOUSTON BUSH   PTCLDY    84  72  67 S8        30.00R
HOUSTON HOBBY  MOCLDY    83  73  72 S6        30.00R
GALVESTON      PTCLDY    83  77  82 S9        30.01S
COLLEGE STAT   CLOUDY    87  68  52 S14       29.97R
CONROE         CLEAR     82  71  69 S8        29.99R
HUNTSVILLE     PTCLDY    84  69  60 S7        29.98R
LUFKIN         PTCLDY    79  76  90 E6        29.99R
SHREVEPORT     PTCLDY    80  76  87 S5        29.99R
MONROE         PTCLDY    79  73  82 S5        30.00S
NATCHEZ MS     NOT AVBL
BATON ROUGE    CLOUDY    79  76  90 CALM      30.03R
N.O. INTL ARPT MOCLDY    79  75  87 CALM      30.05R
SLIDELL        CLEAR     77  75  93 S3        30.05R
$$

MARINE REPORTS

STATION/POSITION TIME  SKY/WX   TEMP    WIND        PRES    VSBY
                                AIR SEA DIR/SP/G
                 (UTC)          (F)     (DEG/KT/KT) (MB)    (MI)
BUOY 30 S HIGH I 0150            85 87  190/ 12/ 14 1016.2
WVE H/P(F/S)=  3/ 7

SEA RIM ST PARK  0300            84     200/  9/ 11 1017.0R
PORT ARTHUR      0248            83 87  200/  5/  8 1016.5R
SABINE PASS N    0248            84 88  200/  8/ 11 1017.8R
TEXAS POINT      NOT AVBL
CALCASIEU PASS   0248            85 85  230/ 14/ 17 1015.6R
LK CHARLES BEACH 0248            84 84              1016.8R
MARSH ISLAND     NOT AVBL
FRESH WATER LOCK 0248            84 85  200/  9/ 12 1017.1R
AMERADA PASS     0248            83 87  200/  2/  6 1017.4R
$$




USA.gov is the U.S. government's official web portal to all federal, state and local government web resources and services.